Biloxi, MS

3:46 AM CST on December 06, 2016 (GMT -0600)
Keesler Air Force Base

Weather History for KBIX - September, 2012

Change the Weather History Date:

Wednesday, September 19, 2012

  Actual Average Record
Temperature  
Mean Temperature 71 °F -  
Max Temperature 80 °F 86 °F 95 °F (1972)
Min Temperature 63 °F 69 °F 52 °F (1981)
Cooling Degree Days 6    
Growing Degree Days 21 (Base 50)    
Moisture  
Dew Point 58 °F    
Average Humidity 64    
Maximum Humidity 77    
Minimum Humidity 49    
Precipitation  
Precipitation 0.00 in - - ()
Sea Level Pressure  
Sea Level Pressure 30.04 in    
Wind  
Wind Speed 8 mph (NNE)    
Max Wind Speed 10 mph    
Max Gust Speed -    
Visibility 10 miles    
Events      
Averages and records for this station are not official NWS values.
T = Trace of Precipitation, MM = Missing Value Source: NWS Daily Summary

Daily Weather History Graph

Daily Weather History Graph

Search for Another Location

Airport or City:

Trip Planner

Search our weather history database for the weather conditions in past years. The results will help you decide how hot, cold, wet, or windy it might be!

Date:

Astronomy

Sep. 19, 2012 Rise Set
Actual Time 6:42 AM CDT 6:55 PM CDT
Civil Twilight 6:18 AM CDT 7:19 PM CDT
Nautical Twilight 5:50 AM CDT 7:47 PM CDT
Astronomical Twilight 5:22 AM CDT 8:15 PM CDT
Moon 10:31 AM CDT (9/19) 9:27 PM CDT (9/19)
Length of Visible Light 13h 00m
Length of Day
12h 12m
Waxing Crescent, 17% of the Moon is Illuminated
Sep 19
Waxing Crescent
Sep 22
First Quarter
Sep 29
Full
Oct 8
Last Quarter
Oct 15
New

Hourly Weather History & Observations

Time (CDT) Temp. Dew Point Humidity Pressure Visibility Wind Dir Wind Speed Gust Speed Precip Events Conditions
12:55 AM 69.6 °F 61.3 °F 75% 30.00 in 10.0 mi North 9.2 mph - N/A   Clear
1:55 AM 68.4 °F 60.1 °F 75% 29.99 in 10.0 mi North 9.2 mph - N/A   Clear
2:55 AM 67.1 °F 59.5 °F 77% 29.99 in 10.0 mi NNE 6.9 mph - N/A   Clear
3:55 AM 66.0 °F 58.5 °F 77% 29.99 in 10.0 mi NNE 10.4 mph - N/A   Clear
4:55 AM 64.9 °F 57.0 °F 75% 30.02 in 10.0 mi NNE 8.1 mph - N/A   Clear
5:55 AM 64.4 °F 55.8 °F 73% 30.04 in 10.0 mi NNE 9.2 mph - N/A   Clear
6:55 AM 63.1 °F 53.8 °F 71% 30.04 in 10.0 mi North 8.1 mph - N/A   Clear
7:55 AM 64.2 °F 53.6 °F 68% 30.06 in 10.0 mi NNE 9.2 mph - N/A   Clear
8:55 AM 67.5 °F 54.7 °F 64% 30.07 in 10.0 mi NE 9.2 mph - N/A   Clear
9:55 AM 70.7 °F 55.9 °F 59% 30.08 in 10.0 mi NNE 6.9 mph - N/A   Clear
10:55 AM 73.6 °F 57.2 °F 56% 30.09 in 10.0 mi North 10.4 mph - N/A   Clear
11:55 AM 76.1 °F 57.4 °F 52% 30.09 in 10.0 mi NNE 3.5 mph - N/A   Clear
12:55 PM 77.7 °F 57.6 °F 50% 30.08 in 10.0 mi East 3.5 mph - N/A   Clear
1:55 PM 78.8 °F 58.3 °F 49% 30.05 in 10.0 mi Calm Calm - N/A   Clear
2:55 PM 79.5 °F 61.2 °F 53% 30.04 in 10.0 mi South 8.1 mph - N/A   Clear
3:55 PM 78.8 °F 61.7 °F 56% 30.02 in 10.0 mi SW 5.8 mph - N/A   Clear
4:55 PM 78.3 °F 62.1 °F 57% 30.02 in 10.0 mi Calm Calm - N/A   Clear
5:55 PM 77.7 °F 60.1 °F 54% 30.01 in 10.0 mi NNE 9.2 mph - N/A   Clear
6:55 PM 75.4 °F 60.1 °F 59% 30.03 in 10.0 mi NNE 8.1 mph - N/A   Clear
7:55 PM 72.7 °F 59.7 °F 64% 30.04 in 10.0 mi NE 5.8 mph - N/A   Clear
8:55 PM 71.4 °F 58.8 °F 64% 30.06 in 10.0 mi NE 5.8 mph - N/A   Clear
9:55 PM 69.4 °F 57.9 °F 67% 30.08 in 10.0 mi NE 5.8 mph - N/A   Clear
10:55 PM 68.5 °F 56.5 °F 65% 30.09 in 10.0 mi NE 6.9 mph - N/A   Clear
11:55 PM 66.6 °F 56.7 °F 70% 30.08 in 10.0 mi NNE 3.5 mph - N/A   Clear